THOR ABLESTAR DEB, 122

Orbit data source: Space-Track

THOR ABLESTAR DEB, 122 is space debris in LEO originally from a launch on Thu, 29 Jun 1961 UTC launched from the Air Force Eastern Test Range (AFETR). Debris objects in space refer to the collection of defunct objects orbiting the Earth. Examples of debris include non-operational satellites, rocket bodies, and fragments generated from explosions, collisions, or faulty payload assembly.

Loading next visibility...
Identifier
122, 1961-015G
Orbit
LEO
Last TLE update
17 hours ago
Origin
Manufacturer
Unknown
Mission
Spacecraft
Bus & Motor
Unknown
Mass
Unknown
Launch date (UTC)
1961-06-29 (64 years ago)
Launch vehicle
Unknown
Launch site
Air Force Eastern Test Range (AFETR)
Object type
Payload
Rocket body
Debris
Shape & HBR
Unknown
Radar Cross Section
Medium (>0.1 m² and <1 m²)

Expand to show TLE details & history

TLE from 17 hours ago
0 THOR ABLESTAR DEB
1 00122U 61015G   25188.12940793  .00006175  00000-0  60019-3 0  9995
2 00122  66.7432 105.9554 0037141 126.2111 234.2463 14.92772659342627
Epoch: 2025-07-07T03:06Z
TLE epoch observation values (Epoch: 2025-07-07T03:06:20.845Z)
Latitude
-0.00001°
Longitude
134.02536°
Altitude
606.652 km
Speed
7.548 km/s
True Right ascension
07h 03m 49s
True Declination
0° 00' 00"
Sunlit
Object was in daylight at epoch
Visualization orbit readout
Latitude
-64.14274°
Longitude
13.83456°
Altitude
630.311 km
Speed
7.533 km/s
Apparent Right ascension
21h 24m 21s
Apparent Declination
-54° 02' 10"
Sunlit
Object is in full shadow
Visualization observer readout
Local Sidereal Time
08:23:49
Azimuth
210.821° SW
Elevation
-72.585°
Doppler factor
1
Orbital elements
Apogee altitude
613.489 km
Perigee altitude
561.746 km
Semi-major axis
6,965.754 km
Eccentricity
0.00371
Inclination
66.7432°
RAAN
105.9554°
Arg. of periapsis
126.2111°
True anomaly
Unknown
Mean anomaly
234.2463°
Eccentric anomaly
Unknown
Mean motion
3.73328 °/min
Orbital period
96.43 mins
BSTAR
0.00060019
Loading maneuver chart data...
Loading SW <> Apogee altitude chart data...

THOR ABLESTAR DEB Visibility forecast

Observer location: undefined°, undefined°

Span
Click to sort rows by Start time (UTC) header in descending order
Start Az.
Max El. time (UTC)
Max El. Az.
Max El.
End time (UTC)
End Az.
7 mins2025-07-07 20:57:05.321Z243.555° WSW2025-07-07 21:01:05.321Z316.849° NNW27.194°2025-07-07 21:04:05.321Z6.877° NNE
6 mins2025-07-08 05:24:05.321Z326.903° NNW2025-07-08 05:26:05.321Z294.256° NW44.068°2025-07-08 05:30:05.321Z155.966° SSE
6 mins2025-07-08 19:27:05.321Z171.749° S2025-07-08 19:29:05.321Z127.882° SE32.62°2025-07-08 19:33:05.321Z45.379° ENE
|